Flag for Germany Weather past 2 weeks in Erding, Bavaria, Germany

Now
75 °F

Partly sunny.


Feels Like: 77 °F
Forecast: 61 / 71 °F
Wind: 3 mph from North

Location: Munich / Franz Josef Strauss Airport

Current Time: Aug 2, 2014 at 11:43:55 AM

Latest Report: Aug 2, 2014 at 11:20 AM


Visibility: N/A

Pressure: 29.83 "Hg

Humidity: 69%

Dew point: 64 °F

Location of ErdingLocation

Historic Weather in Erding — Graph

°F

Erding temperature yesterday

Maximum temperature yesterday: 75 °F (at 3:20 PM)
Minimum temperature yesterday: 52 °F (at 4:50 AM)
Average temperature yesterday: 65 °F

Past Weeks' High & Low Weather Summary

 TemperatureHumidityPressure
High88 °F (Jul 19, 3:20 PM)100% (Jul 19, 6:20 AM)30.15 "Hg (Jul 19, 6:20 AM)
Low50 °F (Jul 24, 5:50 AM)29% (Jul 19, 6:20 PM)29.74 "Hg (Jul 29, 4:20 PM)
Average67 °F79%29.91 "Hg
* Reported Jul 18 10:20 AM — Aug 2 10:50 AM, Erding, Weather by CustomWeather, © 2014

Note: Actual official high and low records may vary slightly from our data, if they occured in-between our weather recording intervals... More about our weather records

Advertising

Erding weather history for previous 24 hours

 ConditionsComfort  
Time TempWeatherWind HumidityBarometerVisibility
10:50 AM
Aug 2
73 °FSunny.2 mph74%29.83 "Hg10 mi
10:20 AM72 °FPartly sunny.2 mph78%29.83 "HgN/A
9:50 AM70 °FPassing clouds.5 mph78%29.83 "HgN/A
9:20 AM68 °FPassing clouds.3 mph83%29.83 "HgN/A
8:50 AM66 °FSunny.2 mph83%29.83 "Hg10 mi
8:20 AM64 °FPassing clouds.3 mph94%29.83 "HgN/A
7:50 AM63 °FLight fog.3 mph94%29.83 "Hg3 mi
7:20 AM61 °FLight fog.3 mph94%29.83 "Hg3 mi
6:50 AM57 °FSleet. Light fog.2 mph100%29.83 "Hg2 mi
6:20 AM57 °FFog.1 mph100%29.83 "Hg3 mi
5:50 AM57 °FFog.1 mph100%29.83 "Hg4 mi
5:20 AM59 °FFog.5 mph100%29.83 "Hg5 mi
4:50 AM59 °FFog.3 mph100%29.83 "HgN/A
4:20 AM59 °FClear.3 mph100%29.83 "Hg10 mi
3:50 AM59 °FClear.5 mph100%29.83 "Hg10 mi
3:20 AM61 °FFog.5 mph94%29.83 "HgN/A
2:50 AM59 °FFog.3 mph94%29.83 "HgN/A
2:20 AM59 °FClear.2 mph94%29.83 "Hg10 mi
1:50 AM59 °FClear.2 mph94%29.83 "Hg10 mi
1:20 AM61 °FClear.3 mph94%29.86 "Hg10 mi
12:50 AM61 °FClear.2 mph94%29.86 "Hg10 mi
12:20 AM63 °FClear.2 mph88%29.86 "Hg10 mi
11:50 PM
Aug 1
64 °FClear.2 mph88%29.86 "Hg10 mi
11:20 PM66 °FClear.3 mph83%29.86 "Hg10 mi
10:50 PM66 °FClear.7 mph83%29.86 "Hg10 mi
10:20 PM68 °FClear.5 mph78%29.86 "Hg10 mi
9:50 PM68 °FClear.6 mph78%29.86 "Hg10 mi
9:20 PM70 °FSunny.6 mph73%29.86 "Hg10 mi
8:50 PM70 °FScattered clouds.6 mph73%29.86 "HgN/A
8:20 PM72 °FScattered clouds.6 mph69%29.86 "HgN/A
7:50 PM73 °FScattered clouds.6 mph65%29.86 "HgN/A
7:20 PM75 °FScattered clouds.7 mph61%29.86 "HgN/A
6:50 PM75 °FScattered clouds.6 mph57%29.86 "HgN/A
6:20 PM75 °FScattered clouds.7 mph57%29.83 "HgN/A
5:50 PM75 °FPassing clouds.7 mph61%29.86 "HgN/A
5:20 PM75 °FOvercast.5 mph61%29.86 "HgN/A
4:50 PM75 °FOvercast.7 mph61%29.86 "HgN/A
4:20 PM75 °FBroken clouds.5 mph61%29.86 "HgN/A
3:50 PM75 °FBroken clouds.6 mph61%29.86 "HgN/A
3:20 PM75 °FBroken clouds.7 mph61%29.89 "HgN/A
2:50 PM73 °FBroken clouds.7 mph61%29.89 "HgN/A
2:20 PM73 °FBroken clouds.8 mph65%29.89 "HgN/A
1:50 PM72 °FScattered clouds.9 mph69%29.89 "HgN/A
1:20 PM73 °FScattered clouds.8 mph69%29.89 "HgN/A
12:50 PM72 °FScattered clouds.10 mph65%29.92 "HgN/A
12:20 PM70 °FBroken clouds.9 mph69%29.92 "HgN/A
11:50 AM70 °FBroken clouds.8 mph69%29.92 "HgN/A
11:20 AM68 °FBroken clouds.8 mph73%29.92 "HgN/A
Weather by CustomWeather, © 2014

See weather overviewHow to use our weather pages